DW8248 Weather Reports


time (UTC)temp
F
wind
direction
speed
knots
gust
knots
rain 1hr
in
rain 24hr
in
rain mn
in
humidity
%
barometer
mb
20260902230726 85 97 2.6 6.1 0.00 0.51 0.51 80 1013.3
20260902225705 85 117 3.5 7.0 0.00 0.51 0.51 80 1013.2
20260902224649 85 83 2.6 7.8 0.00 0.51 0.51 80 1013.1
20260902223657 85 78 2.6 7.8 0.00 0.51 0.51 81 1013.2
20260902222629 85 96 3.5 6.1 0.00 0.51 0.51 81 1013.1
20260902220521 85 87 3.5 7.0 0.00 0.51 0.51 81 1013.2
20260902214409 85 94 2.6 6.1 0.00 0.51 0.51 81 1013.5
20260902212241 85 89 2.6 6.1 0.00 0.51 0.51 81 1013.4
20260902211235 85 109 2.6 7.0 0.00 0.51 0.51 81 1013.3
20260902210213 85 104 2.6 7.8 0.00 0.51 0.51 81 1013.3
20260902202917 85 111 3.5 7.0 0.00 0.51 0.51 81 1013.6
20260902201930 86 122 3.5 7.0 0.00 0.51 0.51 79 1013.6
20260902194616 85 123 4.3 7.0 0.00 0.51 0.51 78 1013.7
20260902193600 86 63 3.5 7.0 0.00 0.51 0.51 78 1013.9
20260902192538 85 131 2.6 6.1 0.00 0.51 0.51 78 1014.1
20260902191544 85 69 2.6 7.0 0.00 0.51 0.51 79 1014.2
20260902190550 85 68 3.5 7.0 0.00 0.51 0.51 79 1014.4
20260902185556 85 67 3.5 7.0 0.00 0.51 0.51 78 1014.4
20260902184613 85 91 3.5 7.0 0.00 0.51 0.51 77 1014.4
20260902183609 85 126 2.6 7.8 0.00 0.51 0.51 79 1014.4
20260902182544 85 86 3.5 7.8 0.00 0.51 0.51 79 1014.4
20260902181550 85 111 4.3 7.8 0.00 0.51 0.51 79 1014.4
20260902180602 85 134 3.5 7.0 0.00 0.51 0.51 79 1014.6
20260902175543 86 102 1.7 7.0 0.00 0.51 0.51 79 1014.7
20260902174513 86 117 2.6 7.0 0.00 0.51 0.51 79 1014.8
20260902173442 86 108 2.6 7.0 0.00 0.51 0.51 78 1014.8
20260902172449 86 100 3.5 7.0 0.00 0.51 0.51 78 1014.9
20260902170300 86 109 3.5 7.8 0.00 0.51 0.51 78 1015.0
20260902165222 86 125 3.5 7.8 0.00 0.51 0.51 78 1015.3
20260902164218 86 84 3.5 7.0 0.00 0.51 0.51 79 1015.4
20260902163215 86 64 3.5 7.0 0.00 0.51 0.51 78 1015.6
20260902162155 86 51 2.6 7.0 0.00 0.51 0.51 78 1015.7
20260902161122 86 88 2.6 6.1 0.00 0.51 0.51 79 1015.6
20260902160143 86 107 2.6 6.1 0.00 0.51 0.51 79 1015.8
20260902155203 86 89 2.6 6.1 0.00 0.51 0.51 80 1015.8
20260902151839 85 46 1.7 6.1 0.00 0.51 0.51 81 1015.8
20260902150825 85 59 2.6 6.1 0.00 0.51 0.51 81 1015.7
20260902145756 85 55 2.6 6.1 0.00 0.51 0.51 80 1015.7
20260902144727 86 19 2.6 6.1 0.00 0.51 0.51 79 1015.7
20260902143740 86 30 2.6 6.1 0.00 0.51 0.51 79 1015.6
20260902141545 86 70 2.6 6.1 0.00 0.51 0.51 79 1015.7
20260902140516 85 45 1.7 6.1 0.00 0.51 0.51 79 1015.7
20260902135501 85 333 3.5 7.0 0.00 0.51 0.51 80 1015.5
20260902134500 85 0 2.6 7.0 0.00 0.51 0.51 81 1015.6
20260902133457 84 39 1.7 4.3 0.00 0.51 0.51 83 1015.4
20260902132503 84 0 1.7 3.5 0.00 0.51 0.51 84 1015.5
20260902131427 83 24 1.7 3.5 0.00 0.51 0.51 86 1015.4
20260902124139 83 348 2.6 4.3 0.00 0.51 0.51 88 1015.3
20260902123112 82 355 2.6 6.1 0.00 0.51 0.51 89 1015.2
20260902122044 82 334 2.6 4.3 0.00 0.51 0.51 89 1015.1
20260902121026 82 315 2.6 3.5 0.00 0.51 0.51 89 1015.2
20260902120042 82 327 0.0 2.6 0.00 0.51 0.51 89 1015.2
20260902115007 81 350 0.0 0.0 0.00 0.51 0.51 89 1015.2
20260902114007 81 332 0.0 0.0 0.00 0.51 0.51 88 1015.0
20260902112953 81 331 0.0 0.0 0.00 0.51 0.51 88 1014.8
20260902111928 81 342 0.0 0.0 0.00 0.51 0.51 88 1014.9
20260902110901 81 355 0.0 0.0 0.00 0.51 0.51 88 1014.7
20260902105844 81 305 0.0 0.0 0.00 0.51 0.51 87 1014.5
20260902104900 81 315 0.0 1.7 0.00 0.51 0.51 87 1014.5
20260902103846 81 16 0.0 0.0 0.00 0.51 0.51 87 1014.3
20260902102844 81 16 0.0 0.0 0.00 0.51 0.51 86 1014.4
20260902101813 81 16 0.0 0.0 0.00 0.51 0.51 85 1014.2
20260902100821 82 10 0.0 0.0 0.00 0.51 0.51 85 1014.2
20260902095747 82 344 0.9 5.2 0.00 0.51 0.51 84 1014.1
20260902094715 82 304 2.6 6.1 0.00 0.51 0.51 85 1014.3
20260902093733 81 337 3.5 6.1 0.00 0.51 0.51 86 1014.2
20260902092700 81 309 3.5 7.0 0.00 0.51 0.51 86 1014.2
20260902090556 80 285 0.9 5.2 1.14 0.44 0.46 87 1014.2
20260902085606 80 253 5.2 11.3 0.83 0.16 0.18 87 1014.1
20260902084539 81 192 8.7 11.3 0.96 0.00 0.02 86 1014.0
20260902083535 81 215 7.8 9.6 0.00 0.00 0.00 85 1013.8
20260902082540 81 217 6.1 8.7 0.00 0.00 0.00 87 1013.9
20260902081514 81 209 7.0 8.7 0.00 0.00 0.00 87 1014.0
20260902080458 82 260 5.2 7.8 0.00 0.00 0.00 87 1014.0
20260902075514 82 281 6.1 7.8 0.00 0.00 0.00 86 1014.0
20260902073341 82 327 2.6 4.3 0.00 0.00 0.00 86 1013.9
20260902072357 83 321 2.6 4.3 0.00 0.00 0.00 86 1014.0
20260902071328 82 325 1.7 3.5 0.00 0.00 0.00 86 1014.1
20260902070254 82 5 1.7 2.6 0.00 0.00 0.00 86 1014.1
20260902065308 82 350 1.7 3.5 0.00 0.00 0.00 86 1014.1
20260902063214 83 340 2.6 5.2 0.00 0.00 0.00 86 1014.3
20260902062235 82 310 1.7 3.5 0.00 0.00 0.00 86 1014.2
20260902061215 83 346 0.9 2.6 0.00 0.00 0.00 86 1014.3
20260902053855 83 350 0.9 1.7 0.00 0.00 0.00 84 1014.6
20260902052840 83 14 0.9 2.6 0.00 0.00 0.00 84 1014.6
20260902051838 83 20 0.9 5.2 0.00 0.00 0.00 84 1014.5
20260902050850 83 33 1.7 5.2 0.00 0.00 0.00 84 1014.4
20260902044719 83 355 0.0 0.0 0.00 0.00 0.00 84 1014.6
20260902043714 83 348 0.0 0.0 0.00 0.00 0.00 84 1014.6
20260902042726 83 5 0.0 0.0 0.00 0.00 0.00 84 1014.6
20260902041715 83 15 0.9 3.5 0.00 0.00 0.00 84 1014.7
20260902040642 83 35 0.9 3.5 0.00 0.00 0.00 83 1014.7
20260902035635 83 355 1.7 5.2 0.00 0.00 0.00 83 1014.7
20260902031235 83 0 1.7 5.2 0.00 0.00 0.00 83 1015.3
20260902030206 83 355 2.6 6.1 0.00 0.00 0.00 83 1015.4
20260902025151 83 355 3.5 6.1 0.00 0.00 0.00 83 1015.6
20260902024115 83 38 4.3 7.8 0.00 0.00 0.00 82 1015.7
20260902023039 83 34 4.3 7.8 0.00 0.00 0.00 82 1015.5
20260902022021 83 339 4.3 8.7 0.00 0.00 0.00 82 1015.5
20260902015833 83 0 3.5 7.0 0.00 0.00 0.00 82 1015.4
20260902014758 83 15 2.6 7.0 0.00 0.00 0.00 82 1015.6
20260902012640 83 355 4.3 8.7 0.00 0.00 0.00 80 1015.2
20260902011614 83 355 2.6 7.0 0.00 0.00 0.00 80 1015.1
20260902010556 83 5 4.3 7.8 0.00 0.00 0.00 81 1015.1
20260902005617 83 0 4.3 8.7 0.00 0.00 0.00 82 1015.1
20260902004545 83 348 4.3 8.7 0.00 0.00 0.00 82 1015.1
20260902003508 84 355 2.6 7.0 0.00 0.00 0.00 82 1015.1
20260902001405 84 0 3.5 7.8 0.00 0.00 0.00 82 1015.2
20260902000407 84 351 3.5 7.8 0.00 0.00 0.00 81 1015.2
20260901235411 84 15 2.6 6.1 0.00 0.00 0.00 82 1015.2
20260901234336 84 0 2.6 7.8 0.00 0.00 0.00 82 1015.2
20260901233327 84 9 3.5 7.8 0.00 0.00 0.00 81 1015.0
20260901232324 84 344 4.3 8.7 0.00 0.00 0.00 81 1015.0
20260901231330 84 9 4.3 8.7 0.00 0.00 0.00 81 1014.9